owner,sensor,date,latitude,longitude,vertical_datum,sea_water_temperature,qcFlag 
TABS,ioos:station:wmo:42051:1,2002-12-01T00:00:00Z,29.6350,-93.6417,-2.0,16.67,11111222 
TABS,ioos:station:wmo:42051:1,2002-12-01T00:30:00Z,29.6350,-93.6417,-2.0,16.65,11111222 
TABS,ioos:station:wmo:42051:1,2002-12-01T01:00:00Z,29.6350,-93.6417,-2.0,16.61,11111222 
TABS,ioos:station:wmo:42051:1,2002-12-01T01:30:00Z,29.6350,-93.6417,-2.0,16.59,11111222 
TABS,ioos:station:wmo:42051:1,2002-12-01T02:00:00Z,29.6350,-93.6417,-2.0,16.54,11111222 
TABS,ioos:station:wmo:42051:1,2002-12-01T02:30:00Z,29.6350,-93.6417,-2.0,16.53,11111222 
TABS,ioos:station:wmo:42051:1,2002-12-01T03:00:00Z,29.6350,-93.6417,-2.0,16.53,11111222 
TABS,ioos:station:wmo:42051:1,2002-12-01T03:30:00Z,29.6350,-93.6417,-2.0,16.49,11111222 
TABS,ioos:station:wmo:42051:1,2002-12-01T04:00:00Z,29.6350,-93.6417,-2.0,16.46,11111222 
TABS,ioos:station:wmo:42051:1,2002-12-01T04:30:00Z,29.6350,-93.6417,-2.0,16.45,11111222 
TABS,ioos:station:wmo:42051:1,2002-12-01T05:00:00Z,29.6350,-93.6417,-2.0,16.45,11111222 
TABS,ioos:station:wmo:42051:1,2002-12-01T05:30:00Z,29.6350,-93.6417,-2.0,16.45,11111222 
TABS,ioos:station:wmo:42051:1,2002-12-01T06:00:00Z,29.6350,-93.6417,-2.0,16.44,11111222 
TABS,ioos:station:wmo:42051:1,2002-12-01T06:30:00Z,29.6350,-93.6417,-2.0,16.45,11111222 
TABS,ioos:station:wmo:42051:1,2002-12-01T07:00:00Z,29.6350,-93.6417,-2.0,16.42,11111222 
TABS,ioos:station:wmo:42051:1,2002-12-01T07:30:00Z,29.6350,-93.6417,-2.0,16.37,11111222 
TABS,ioos:station:wmo:42051:1,2002-12-01T08:00:00Z,29.6350,-93.6417,-2.0,16.34,11111222 
TABS,ioos:station:wmo:42051:1,2002-12-01T08:30:00Z,29.6350,-93.6417,-2.0,16.32,11111222 
TABS,ioos:station:wmo:42051:1,2002-12-01T09:00:00Z,29.6350,-93.6417,-2.0,16.32,11111222 
TABS,ioos:station:wmo:42051:1,2002-12-01T09:30:00Z,29.6350,-93.6417,-2.0,16.22,11111222 
TABS,ioos:station:wmo:42051:1,2002-12-01T10:00:00Z,29.6350,-93.6417,-2.0,16.29,11111222 
TABS,ioos:station:wmo:42051:1,2002-12-01T10:30:00Z,29.6350,-93.6417,-2.0,16.26,11111222 
TABS,ioos:station:wmo:42051:1,2002-12-01T11:00:00Z,29.6350,-93.6417,-2.0,16.35,11111222 
TABS,ioos:station:wmo:42051:1,2002-12-01T11:30:00Z,29.6350,-93.6417,-2.0,16.48,11111222 
TABS,ioos:station:wmo:42051:1,2002-12-01T12:00:00Z,29.6350,-93.6417,-2.0,16.47,11111222 
TABS,ioos:station:wmo:42051:1,2002-12-01T12:30:00Z,29.6350,-93.6417,-2.0,16.6,11111222 
TABS,ioos:station:wmo:42051:1,2002-12-01T13:00:00Z,29.6350,-93.6417,-2.0,16.31,11111222 
TABS,ioos:station:wmo:42051:1,2002-12-01T13:30:00Z,29.6350,-93.6417,-2.0,16.4,11111222 
TABS,ioos:station:wmo:42051:1,2002-12-01T14:00:00Z,29.6350,-93.6417,-2.0,16.52,11111222 
TABS,ioos:station:wmo:42051:1,2002-12-01T14:30:00Z,29.6350,-93.6417,-2.0,16.61,11111222 
TABS,ioos:station:wmo:42051:1,2002-12-01T15:00:00Z,29.6350,-93.6417,-2.0,16.65,11111222 
TABS,ioos:station:wmo:42051:1,2002-12-01T15:30:00Z,29.6350,-93.6417,-2.0,16.6,11111222 
TABS,ioos:station:wmo:42051:1,2002-12-01T16:00:00Z,29.6350,-93.6417,-2.0,16.66,11111222 
TABS,ioos:station:wmo:42051:1,2002-12-01T16:30:00Z,29.6350,-93.6417,-2.0,16.73,11111222 
TABS,ioos:station:wmo:42051:1,2002-12-01T17:00:00Z,29.6350,-93.6417,-2.0,16.77,11111222 
TABS,ioos:station:wmo:42051:1,2002-12-01T17:30:00Z,29.6350,-93.6417,-2.0,16.81,11111222 
TABS,ioos:station:wmo:42051:1,2002-12-01T23:30:00Z,29.6350,-93.6417,-2.0,16.61,11111222 
TABS,ioos:station:wmo:42051:1,2002-12-02T00:00:00Z,29.6350,-93.6417,-2.0,16.6,11111222 
TABS,ioos:station:wmo:42051:1,2002-12-02T00:30:00Z,29.6350,-93.6417,-2.0,16.55,11111222 
TABS,ioos:station:wmo:42051:1,2002-12-02T01:00:00Z,29.6350,-93.6417,-2.0,16.57,11111222 
TABS,ioos:station:wmo:42051:1,2002-12-02T01:30:00Z,29.6350,-93.6417,-2.0,16.56,11111222 
TABS,ioos:station:wmo:42051:1,2002-12-02T02:00:00Z,29.6350,-93.6417,-2.0,16.6,11111222 
TABS,ioos:station:wmo:42051:1,2002-12-02T02:30:00Z,29.6350,-93.6417,-2.0,16.57,11111222 
TABS,ioos:station:wmo:42051:1,2002-12-02T03:00:00Z,29.6350,-93.6417,-2.0,16.61,11111222 
TABS,ioos:station:wmo:42051:1,2002-12-02T03:30:00Z,29.6350,-93.6417,-2.0,16.46,11111222 
TABS,ioos:station:wmo:42051:1,2002-12-02T04:00:00Z,29.6350,-93.6417,-2.0,16.51,11111222 
TABS,ioos:station:wmo:42051:1,2002-12-02T04:30:00Z,29.6350,-93.6417,-2.0,16.51,11111222 
TABS,ioos:station:wmo:42051:1,2002-12-02T05:00:00Z,29.6350,-93.6417,-2.0,16.55,11111222 
TABS,ioos:station:wmo:42051:1,2002-12-02T05:30:00Z,29.6350,-93.6417,-2.0,16.48,11111222 
TABS,ioos:station:wmo:42051:1,2002-12-02T06:00:00Z,29.6350,-93.6417,-2.0,16.53,11111222 
TABS,ioos:station:wmo:42051:1,2002-12-02T06:30:00Z,29.6350,-93.6417,-2.0,16.53,11111222 
TABS,ioos:station:wmo:42051:1,2002-12-02T07:00:00Z,29.6350,-93.6417,-2.0,16.47,11111222 
TABS,ioos:station:wmo:42051:1,2002-12-02T07:30:00Z,29.6350,-93.6417,-2.0,16.49,11111222 
TABS,ioos:station:wmo:42051:1,2002-12-02T08:00:00Z,29.6350,-93.6417,-2.0,16.42,11111222 
TABS,ioos:station:wmo:42051:1,2002-12-02T08:30:00Z,29.6350,-93.6417,-2.0,16.42,11111222 
TABS,ioos:station:wmo:42051:1,2002-12-02T09:00:00Z,29.6350,-93.6417,-2.0,16.46,11111222 
TABS,ioos:station:wmo:42051:1,2002-12-02T09:30:00Z,29.6350,-93.6417,-2.0,16.45,11111222 
TABS,ioos:station:wmo:42051:1,2002-12-02T10:00:00Z,29.6350,-93.6417,-2.0,16.45,11111222 
TABS,ioos:station:wmo:42051:1,2002-12-02T10:30:00Z,29.6350,-93.6417,-2.0,16.44,11111222 
TABS,ioos:station:wmo:42051:1,2002-12-02T11:00:00Z,29.6350,-93.6417,-2.0,16.45,11111222 
TABS,ioos:station:wmo:42051:1,2002-12-02T11:30:00Z,29.6350,-93.6417,-2.0,16.46,11111222 
TABS,ioos:station:wmo:42051:1,2002-12-02T12:00:00Z,29.6350,-93.6417,-2.0,16.47,11111222 
TABS,ioos:station:wmo:42051:1,2002-12-02T12:30:00Z,29.6350,-93.6417,-2.0,16.46,11111222 
TABS,ioos:station:wmo:42051:1,2002-12-02T13:00:00Z,29.6350,-93.6417,-2.0,16.45,11111222 
TABS,ioos:station:wmo:42051:1,2002-12-02T13:30:00Z,29.6350,-93.6417,-2.0,16.44,11111222 
TABS,ioos:station:wmo:42051:1,2002-12-02T14:00:00Z,29.6350,-93.6417,-2.0,16.42,11111222 
TABS,ioos:station:wmo:42051:1,2002-12-02T14:30:00Z,29.6350,-93.6417,-2.0,16.42,11111222 
TABS,ioos:station:wmo:42051:1,2002-12-02T15:00:00Z,29.6350,-93.6417,-2.0,16.44,11111222 
TABS,ioos:station:wmo:42051:1,2002-12-02T15:30:00Z,29.6350,-93.6417,-2.0,16.48,11111222 
TABS,ioos:station:wmo:42051:1,2002-12-02T16:00:00Z,29.6350,-93.6417,-2.0,16.51,11111222 
TABS,ioos:station:wmo:42051:1,2002-12-02T16:30:00Z,29.6350,-93.6417,-2.0,16.52,11111222 
TABS,ioos:station:wmo:42051:1,2002-12-02T17:00:00Z,29.6350,-93.6417,-2.0,16.6,11111222 
TABS,ioos:station:wmo:42051:1,2002-12-02T17:30:00Z,29.6350,-93.6417,-2.0,16.72,11111222 
TABS,ioos:station:wmo:42051:1,2002-12-02T18:00:00Z,29.6350,-93.6417,-2.0,16.77,11111222 
TABS,ioos:station:wmo:42051:1,2002-12-02T18:30:00Z,29.6350,-93.6417,-2.0,16.8,11111222 
TABS,ioos:station:wmo:42051:1,2002-12-02T19:00:00Z,29.6350,-93.6417,-2.0,16.95,11111222 
TABS,ioos:station:wmo:42051:1,2002-12-02T19:30:00Z,29.6350,-93.6417,-2.0,16.95,11111222 
TABS,ioos:station:wmo:42051:1,2002-12-02T20:00:00Z,29.6350,-93.6417,-2.0,17.09,11111222 
TABS,ioos:station:wmo:42051:1,2002-12-02T20:30:00Z,29.6350,-93.6417,-2.0,17.19,11111222 
TABS,ioos:station:wmo:42051:1,2002-12-02T21:00:00Z,29.6350,-93.6417,-2.0,17.16,11111222 
TABS,ioos:station:wmo:42051:1,2002-12-02T21:30:00Z,29.6350,-93.6417,-2.0,17.1,11111222 
TABS,ioos:station:wmo:42051:1,2002-12-02T22:00:00Z,29.6350,-93.6417,-2.0,17.09,11111222 
TABS,ioos:station:wmo:42051:1,2002-12-02T22:30:00Z,29.6350,-93.6417,-2.0,17.11,11111222 
TABS,ioos:station:wmo:42051:1,2002-12-02T23:00:00Z,29.6350,-93.6417,-2.0,17.09,11111222 
TABS,ioos:station:wmo:42051:1,2002-12-02T23:30:00Z,29.6350,-93.6417,-2.0,17.12,11111222 
TABS,ioos:station:wmo:42051:1,2002-12-03T00:00:00Z,29.6350,-93.6417,-2.0,17.1,11111222 
TABS,ioos:station:wmo:42051:1,2002-12-03T00:30:00Z,29.6350,-93.6417,-2.0,17.05,11111222 
TABS,ioos:station:wmo:42051:1,2002-12-03T01:00:00Z,29.6350,-93.6417,-2.0,17.02,11111222 
TABS,ioos:station:wmo:42051:1,2002-12-03T01:30:00Z,29.6350,-93.6417,-2.0,17.01,11111222 
TABS,ioos:station:wmo:42051:1,2002-12-03T02:00:00Z,29.6350,-93.6417,-2.0,17.03,11111222 
TABS,ioos:station:wmo:42051:1,2002-12-03T02:30:00Z,29.6350,-93.6417,-2.0,17.03,11111222 
TABS,ioos:station:wmo:42051:1,2002-12-03T03:00:00Z,29.6350,-93.6417,-2.0,17.05,11111222 
TABS,ioos:station:wmo:42051:1,2002-12-03T03:30:00Z,29.6350,-93.6417,-2.0,17.06,11111222 
TABS,ioos:station:wmo:42051:1,2002-12-03T04:00:00Z,29.6350,-93.6417,-2.0,17.22,11111222 
TABS,ioos:station:wmo:42051:1,2002-12-03T04:30:00Z,29.6350,-93.6417,-2.0,17.23,11111222 
TABS,ioos:station:wmo:42051:1,2002-12-03T05:00:00Z,29.6350,-93.6417,-2.0,17.3,11111222 
TABS,ioos:station:wmo:42051:1,2002-12-03T05:30:00Z,29.6350,-93.6417,-2.0,17.35,11111222 
TABS,ioos:station:wmo:42051:1,2002-12-03T06:00:00Z,29.6350,-93.6417,-2.0,17.34,11111222 
TABS,ioos:station:wmo:42051:1,2002-12-03T06:30:00Z,29.6350,-93.6417,-2.0,17.32,11111222 
TABS,ioos:station:wmo:42051:1,2002-12-03T07:00:00Z,29.6350,-93.6417,-2.0,17.33,11111222 
TABS,ioos:station:wmo:42051:1,2002-12-03T07:30:00Z,29.6350,-93.6417,-2.0,17.33,11111222 
TABS,ioos:station:wmo:42051:1,2002-12-03T08:00:00Z,29.6350,-93.6417,-2.0,17.31,11111222 
TABS,ioos:station:wmo:42051:1,2002-12-03T08:30:00Z,29.6350,-93.6417,-2.0,17.29,11111222 
TABS,ioos:station:wmo:42051:1,2002-12-03T09:00:00Z,29.6350,-93.6417,-2.0,17.26,11111222 
TABS,ioos:station:wmo:42051:1,2002-12-03T09:30:00Z,29.6350,-93.6417,-2.0,17.23,11111222 
TABS,ioos:station:wmo:42051:1,2002-12-03T10:00:00Z,29.6350,-93.6417,-2.0,17.2,11111222 
TABS,ioos:station:wmo:42051:1,2002-12-03T10:30:00Z,29.6350,-93.6417,-2.0,17.2,11111222 
TABS,ioos:station:wmo:42051:1,2002-12-03T11:00:00Z,29.6350,-93.6417,-2.0,17.17,11111222 
TABS,ioos:station:wmo:42051:1,2002-12-03T11:30:00Z,29.6350,-93.6417,-2.0,17.16,11111222 
TABS,ioos:station:wmo:42051:1,2002-12-03T12:00:00Z,29.6350,-93.6417,-2.0,17.16,11111222 
TABS,ioos:station:wmo:42051:1,2002-12-03T12:30:00Z,29.6350,-93.6417,-2.0,17.15,11111222 
TABS,ioos:station:wmo:42051:1,2002-12-03T13:00:00Z,29.6350,-93.6417,-2.0,17.14,11111222 
TABS,ioos:station:wmo:42051:1,2002-12-03T13:30:00Z,29.6350,-93.6417,-2.0,17.17,11111222 
TABS,ioos:station:wmo:42051:1,2002-12-03T14:00:00Z,29.6350,-93.6417,-2.0,17.18,11111222 
TABS,ioos:station:wmo:42051:1,2002-12-03T14:30:00Z,29.6350,-93.6417,-2.0,17.18,11111222 
TABS,ioos:station:wmo:42051:1,2002-12-03T15:00:00Z,29.6350,-93.6417,-2.0,17.19,11111222 
TABS,ioos:station:wmo:42051:1,2002-12-03T15:30:00Z,29.6350,-93.6417,-2.0,17.21,11111222 
TABS,ioos:station:wmo:42051:1,2002-12-03T16:00:00Z,29.6350,-93.6417,-2.0,17.23,11111222 
TABS,ioos:station:wmo:42051:1,2002-12-03T16:30:00Z,29.6350,-93.6417,-2.0,17.23,11111222 
TABS,ioos:station:wmo:42051:1,2002-12-03T17:00:00Z,29.6350,-93.6417,-2.0,17.23,11111222 
TABS,ioos:station:wmo:42051:1,2002-12-03T17:30:00Z,29.6350,-93.6417,-2.0,17.25,11111222 
TABS,ioos:station:wmo:42051:1,2002-12-03T18:00:00Z,29.6350,-93.6417,-2.0,17.28,11111222 
TABS,ioos:station:wmo:42051:1,2002-12-03T18:30:00Z,29.6350,-93.6417,-2.0,17.26,11111222 
TABS,ioos:station:wmo:42051:1,2002-12-03T19:00:00Z,29.6350,-93.6417,-2.0,17.26,11111222 
TABS,ioos:station:wmo:42051:1,2002-12-03T19:30:00Z,29.6350,-93.6417,-2.0,17.26,11111222 
TABS,ioos:station:wmo:42051:1,2002-12-03T20:00:00Z,29.6350,-93.6417,-2.0,17.23,11111222 
TABS,ioos:station:wmo:42051:1,2002-12-03T20:30:00Z,29.6350,-93.6417,-2.0,17.22,11111222 
TABS,ioos:station:wmo:42051:1,2002-12-03T21:00:00Z,29.6350,-93.6417,-2.0,17.2,11111222 
TABS,ioos:station:wmo:42051:1,2002-12-03T21:30:00Z,29.6350,-93.6417,-2.0,17.2,11111222 
TABS,ioos:station:wmo:42051:1,2002-12-03T22:00:00Z,29.6350,-93.6417,-2.0,17.21,11111222 
TABS,ioos:station:wmo:42051:1,2002-12-03T22:30:00Z,29.6350,-93.6417,-2.0,17.2,11111222 
TABS,ioos:station:wmo:42051:1,2002-12-03T23:00:00Z,29.6350,-93.6417,-2.0,17.2,11111222 
TABS,ioos:station:wmo:42051:1,2002-12-03T23:30:00Z,29.6350,-93.6417,-2.0,17.2,11111222 
TABS,ioos:station:wmo:42051:1,2002-12-04T00:00:00Z,29.6350,-93.6417,-2.0,17.21,11111222 
TABS,ioos:station:wmo:42051:1,2002-12-04T00:30:00Z,29.6350,-93.6417,-2.0,17.22,11111222 
TABS,ioos:station:wmo:42051:1,2002-12-04T01:00:00Z,29.6350,-93.6417,-2.0,17.2,11111222 
TABS,ioos:station:wmo:42051:1,2002-12-04T01:30:00Z,29.6350,-93.6417,-2.0,17.18,11111222 
TABS,ioos:station:wmo:42051:1,2002-12-04T02:00:00Z,29.6350,-93.6417,-2.0,17.15,11111222 
TABS,ioos:station:wmo:42051:1,2002-12-04T02:30:00Z,29.6350,-93.6417,-2.0,17.15,11111222 
TABS,ioos:station:wmo:42051:1,2002-12-04T03:00:00Z,29.6350,-93.6417,-2.0,17.18,11111222 
TABS,ioos:station:wmo:42051:1,2002-12-04T03:30:00Z,29.6350,-93.6417,-2.0,17.2,11111222 
TABS,ioos:station:wmo:42051:1,2002-12-04T04:00:00Z,29.6350,-93.6417,-2.0,17.19,11111222 
TABS,ioos:station:wmo:42051:1,2002-12-04T04:30:00Z,29.6350,-93.6417,-2.0,17.17,11111222 
TABS,ioos:station:wmo:42051:1,2002-12-04T05:00:00Z,29.6350,-93.6417,-2.0,17.15,11111222 
TABS,ioos:station:wmo:42051:1,2002-12-04T05:30:00Z,29.6350,-93.6417,-2.0,17.14,11111222 
TABS,ioos:station:wmo:42051:1,2002-12-04T12:30:00Z,29.6350,-93.6417,-2.0,16.98,11111222 
TABS,ioos:station:wmo:42051:1,2002-12-04T13:00:00Z,29.6350,-93.6417,-2.0,16.98,11111222 
TABS,ioos:station:wmo:42051:1,2002-12-04T13:30:00Z,29.6350,-93.6417,-2.0,16.98,11111222 
TABS,ioos:station:wmo:42051:1,2002-12-04T14:00:00Z,29.6350,-93.6417,-2.0,16.97,11111222 
TABS,ioos:station:wmo:42051:1,2002-12-04T14:30:00Z,29.6350,-93.6417,-2.0,16.97,11111222 
TABS,ioos:station:wmo:42051:1,2002-12-04T15:00:00Z,29.6350,-93.6417,-2.0,16.96,11111222 
TABS,ioos:station:wmo:42051:1,2002-12-04T15:30:00Z,29.6350,-93.6417,-2.0,16.98,11111222 
TABS,ioos:station:wmo:42051:1,2002-12-04T16:00:00Z,29.6350,-93.6417,-2.0,16.98,11111222 
TABS,ioos:station:wmo:42051:1,2002-12-04T16:30:00Z,29.6350,-93.6417,-2.0,16.97,11111222 
TABS,ioos:station:wmo:42051:1,2002-12-04T17:00:00Z,29.6350,-93.6417,-2.0,16.96,11111222 
TABS,ioos:station:wmo:42051:1,2002-12-04T17:30:00Z,29.6350,-93.6417,-2.0,16.95,11111222 
TABS,ioos:station:wmo:42051:1,2002-12-04T18:00:00Z,29.6350,-93.6417,-2.0,16.95,11111222 
TABS,ioos:station:wmo:42051:1,2002-12-04T18:30:00Z,29.6350,-93.6417,-2.0,16.95,11111222 
TABS,ioos:station:wmo:42051:1,2002-12-04T19:00:00Z,29.6350,-93.6417,-2.0,16.96,11111222 
TABS,ioos:station:wmo:42051:1,2002-12-04T19:30:00Z,29.6350,-93.6417,-2.0,16.95,11111222 
TABS,ioos:station:wmo:42051:1,2002-12-04T20:00:00Z,29.6350,-93.6417,-2.0,16.94,11111222 
TABS,ioos:station:wmo:42051:1,2002-12-04T20:30:00Z,29.6350,-93.6417,-2.0,16.94,11111222 
TABS,ioos:station:wmo:42051:1,2002-12-04T21:00:00Z,29.6350,-93.6417,-2.0,16.94,11111222 
TABS,ioos:station:wmo:42051:1,2002-12-04T21:30:00Z,29.6350,-93.6417,-2.0,16.91,11111222 
TABS,ioos:station:wmo:42051:1,2002-12-04T22:00:00Z,29.6350,-93.6417,-2.0,16.89,11111222 
TABS,ioos:station:wmo:42051:1,2002-12-04T22:30:00Z,29.6350,-93.6417,-2.0,16.93,11111222 
TABS,ioos:station:wmo:42051:1,2002-12-04T23:00:00Z,29.6350,-93.6417,-2.0,16.97,11111222 
TABS,ioos:station:wmo:42051:1,2002-12-04T23:30:00Z,29.6350,-93.6417,-2.0,16.97,11111222 
TABS,ioos:station:wmo:42051:1,2002-12-07T16:30:00Z,29.6350,-93.6417,-2.0,14.7,11111222 
TABS,ioos:station:wmo:42051:1,2002-12-07T17:00:00Z,29.6350,-93.6417,-2.0,14.8,11111222 
TABS,ioos:station:wmo:42051:1,2002-12-07T17:30:00Z,29.6350,-93.6417,-2.0,14.89,11111222 
TABS,ioos:station:wmo:42051:1,2002-12-07T18:00:00Z,29.6350,-93.6417,-2.0,14.98,11111222 
TABS,ioos:station:wmo:42051:1,2002-12-07T18:30:00Z,29.6350,-93.6417,-2.0,15.06,11111222 
TABS,ioos:station:wmo:42051:1,2002-12-07T19:00:00Z,29.6350,-93.6417,-2.0,15.11,11111222 
TABS,ioos:station:wmo:42051:1,2002-12-07T19:30:00Z,29.6350,-93.6417,-2.0,15.18,11111222 
TABS,ioos:station:wmo:42051:1,2002-12-07T20:00:00Z,29.6350,-93.6417,-2.0,15.03,11111222 
TABS,ioos:station:wmo:42051:1,2002-12-07T20:30:00Z,29.6350,-93.6417,-2.0,15.07,11111222 
TABS,ioos:station:wmo:42051:1,2002-12-07T21:00:00Z,29.6350,-93.6417,-2.0,15.12,11111222 
TABS,ioos:station:wmo:42051:1,2002-12-07T21:30:00Z,29.6350,-93.6417,-2.0,15.14,11111222 
TABS,ioos:station:wmo:42051:1,2002-12-07T22:00:00Z,29.6350,-93.6417,-2.0,15.16,11111222 
TABS,ioos:station:wmo:42051:1,2002-12-07T22:30:00Z,29.6350,-93.6417,-2.0,15.17,11111222 
TABS,ioos:station:wmo:42051:1,2002-12-07T23:00:00Z,29.6350,-93.6417,-2.0,15.11,11111222 
TABS,ioos:station:wmo:42051:1,2002-12-07T23:30:00Z,29.6350,-93.6417,-2.0,15.1,11111222 
TABS,ioos:station:wmo:42051:1,2002-12-08T00:00:00Z,29.6350,-93.6417,-2.0,15.08,11111222 
TABS,ioos:station:wmo:42051:1,2002-12-08T00:30:00Z,29.6350,-93.6417,-2.0,15.1,11111222 
TABS,ioos:station:wmo:42051:1,2002-12-08T01:00:00Z,29.6350,-93.6417,-2.0,15.1,11111222 
TABS,ioos:station:wmo:42051:1,2002-12-08T01:30:00Z,29.6350,-93.6417,-2.0,15.08,11111222 
TABS,ioos:station:wmo:42051:1,2002-12-08T02:00:00Z,29.6350,-93.6417,-2.0,15.1,11111222 
TABS,ioos:station:wmo:42051:1,2002-12-08T02:30:00Z,29.6350,-93.6417,-2.0,15.08,11111222 
TABS,ioos:station:wmo:42051:1,2002-12-08T03:00:00Z,29.6350,-93.6417,-2.0,15.08,11111222 
TABS,ioos:station:wmo:42051:1,2002-12-08T03:30:00Z,29.6350,-93.6417,-2.0,15.07,11111222 
TABS,ioos:station:wmo:42051:1,2002-12-08T04:00:00Z,29.6350,-93.6417,-2.0,15.08,11111222 
TABS,ioos:station:wmo:42051:1,2002-12-08T04:30:00Z,29.6350,-93.6417,-2.0,15.08,11111222 
TABS,ioos:station:wmo:42051:1,2002-12-08T05:00:00Z,29.6350,-93.6417,-2.0,15.08,11111222 
TABS,ioos:station:wmo:42051:1,2002-12-08T05:30:00Z,29.6350,-93.6417,-2.0,15.07,11111222 
TABS,ioos:station:wmo:42051:1,2002-12-08T07:30:00Z,29.6350,-93.6417,-2.0,15.06,11111222 
TABS,ioos:station:wmo:42051:1,2002-12-08T08:00:00Z,29.6350,-93.6417,-2.0,15.05,11111222 
TABS,ioos:station:wmo:42051:1,2002-12-08T08:30:00Z,29.6350,-93.6417,-2.0,15.04,11111222 
TABS,ioos:station:wmo:42051:1,2002-12-08T09:00:00Z,29.6350,-93.6417,-2.0,15.04,11111222 
TABS,ioos:station:wmo:42051:1,2002-12-08T09:30:00Z,29.6350,-93.6417,-2.0,15.03,11111222 
TABS,ioos:station:wmo:42051:1,2002-12-08T10:00:00Z,29.6350,-93.6417,-2.0,15.01,11111222 
TABS,ioos:station:wmo:42051:1,2002-12-08T10:30:00Z,29.6350,-93.6417,-2.0,15.01,11111222 
TABS,ioos:station:wmo:42051:1,2002-12-08T11:00:00Z,29.6350,-93.6417,-2.0,14.99,11111222 
TABS,ioos:station:wmo:42051:1,2002-12-08T11:30:00Z,29.6350,-93.6417,-2.0,14.98,11111222 
TABS,ioos:station:wmo:42051:1,2002-12-08T12:00:00Z,29.6350,-93.6417,-2.0,14.97,11111222 
TABS,ioos:station:wmo:42051:1,2002-12-08T12:30:00Z,29.6350,-93.6417,-2.0,14.95,11111222 
TABS,ioos:station:wmo:42051:1,2002-12-08T13:00:00Z,29.6350,-93.6417,-2.0,14.94,11111222 
TABS,ioos:station:wmo:42051:1,2002-12-08T13:30:00Z,29.6350,-93.6417,-2.0,14.91,11111222 
TABS,ioos:station:wmo:42051:1,2002-12-08T14:00:00Z,29.6350,-93.6417,-2.0,14.89,11111222 
TABS,ioos:station:wmo:42051:1,2002-12-08T14:30:00Z,29.6350,-93.6417,-2.0,14.88,11111222 
TABS,ioos:station:wmo:42051:1,2002-12-08T15:00:00Z,29.6350,-93.6417,-2.0,14.88,11111222 
TABS,ioos:station:wmo:42051:1,2002-12-08T15:30:00Z,29.6350,-93.6417,-2.0,14.87,11111222 
TABS,ioos:station:wmo:42051:1,2002-12-08T16:00:00Z,29.6350,-93.6417,-2.0,14.86,11111222 
TABS,ioos:station:wmo:42051:1,2002-12-08T16:30:00Z,29.6350,-93.6417,-2.0,14.86,11111222 
TABS,ioos:station:wmo:42051:1,2002-12-08T17:00:00Z,29.6350,-93.6417,-2.0,14.85,11111222 
TABS,ioos:station:wmo:42051:1,2002-12-08T17:30:00Z,29.6350,-93.6417,-2.0,14.85,11111222 
TABS,ioos:station:wmo:42051:1,2002-12-08T18:00:00Z,29.6350,-93.6417,-2.0,14.86,11111222 
TABS,ioos:station:wmo:42051:1,2002-12-08T18:30:00Z,29.6350,-93.6417,-2.0,14.86,11111222 
TABS,ioos:station:wmo:42051:1,2002-12-08T19:00:00Z,29.6350,-93.6417,-2.0,14.86,11111222 
TABS,ioos:station:wmo:42051:1,2002-12-08T19:30:00Z,29.6350,-93.6417,-2.0,14.87,11111222 
TABS,ioos:station:wmo:42051:1,2002-12-08T20:00:00Z,29.6350,-93.6417,-2.0,14.88,11111222 
TABS,ioos:station:wmo:42051:1,2002-12-08T20:30:00Z,29.6350,-93.6417,-2.0,14.88,11111222 
TABS,ioos:station:wmo:42051:1,2002-12-08T21:00:00Z,29.6350,-93.6417,-2.0,14.9,11111222 
TABS,ioos:station:wmo:42051:1,2002-12-08T21:30:00Z,29.6350,-93.6417,-2.0,14.9,11111222 
TABS,ioos:station:wmo:42051:1,2002-12-08T22:00:00Z,29.6350,-93.6417,-2.0,14.89,11111222 
TABS,ioos:station:wmo:42051:1,2002-12-08T22:30:00Z,29.6350,-93.6417,-2.0,14.9,11111222 
TABS,ioos:station:wmo:42051:1,2002-12-08T23:00:00Z,29.6350,-93.6417,-2.0,14.88,11111222 
TABS,ioos:station:wmo:42051:1,2002-12-08T23:30:00Z,29.6350,-93.6417,-2.0,14.87,11111222 
TABS,ioos:station:wmo:42051:1,2002-12-09T00:00:00Z,29.6350,-93.6417,-2.0,14.86,11111222 
TABS,ioos:station:wmo:42051:1,2002-12-09T00:30:00Z,29.6350,-93.6417,-2.0,14.83,11111222 
TABS,ioos:station:wmo:42051:1,2002-12-09T01:00:00Z,29.6350,-93.6417,-2.0,14.8,11111222 
TABS,ioos:station:wmo:42051:1,2002-12-09T01:30:00Z,29.6350,-93.6417,-2.0,14.77,11111222 
TABS,ioos:station:wmo:42051:1,2002-12-09T02:00:00Z,29.6350,-93.6417,-2.0,14.78,11111222 
TABS,ioos:station:wmo:42051:1,2002-12-09T02:30:00Z,29.6350,-93.6417,-2.0,14.76,11111222 
TABS,ioos:station:wmo:42051:1,2002-12-09T03:00:00Z,29.6350,-93.6417,-2.0,14.75,11111222 
TABS,ioos:station:wmo:42051:1,2002-12-09T03:30:00Z,29.6350,-93.6417,-2.0,14.71,11111222 
TABS,ioos:station:wmo:42051:1,2002-12-09T04:00:00Z,29.6350,-93.6417,-2.0,14.6,11111222 
TABS,ioos:station:wmo:42051:1,2002-12-09T04:30:00Z,29.6350,-93.6417,-2.0,14.57,11111222 
TABS,ioos:station:wmo:42051:1,2002-12-09T05:00:00Z,29.6350,-93.6417,-2.0,14.55,11111222 
TABS,ioos:station:wmo:42051:1,2002-12-09T05:30:00Z,29.6350,-93.6417,-2.0,14.58,11111222 
TABS,ioos:station:wmo:42051:1,2002-12-09T06:00:00Z,29.6350,-93.6417,-2.0,14.53,11111222 
TABS,ioos:station:wmo:42051:1,2002-12-09T06:30:00Z,29.6350,-93.6417,-2.0,14.47,11111222 
TABS,ioos:station:wmo:42051:1,2002-12-09T07:00:00Z,29.6350,-93.6417,-2.0,14.44,11111222 
TABS,ioos:station:wmo:42051:1,2002-12-09T07:30:00Z,29.6350,-93.6417,-2.0,14.39,11111222 
TABS,ioos:station:wmo:42051:1,2002-12-09T08:00:00Z,29.6350,-93.6417,-2.0,14.34,11111222 
TABS,ioos:station:wmo:42051:1,2002-12-09T08:30:00Z,29.6350,-93.6417,-2.0,14.32,11111222 
TABS,ioos:station:wmo:42051:1,2002-12-09T09:00:00Z,29.6350,-93.6417,-2.0,14.21,11111222 
TABS,ioos:station:wmo:42051:1,2002-12-09T09:30:00Z,29.6350,-93.6417,-2.0,14.14,11111222 
TABS,ioos:station:wmo:42051:1,2002-12-09T10:00:00Z,29.6350,-93.6417,-2.0,14.2,11111222 
TABS,ioos:station:wmo:42051:1,2002-12-09T10:30:00Z,29.6350,-93.6417,-2.0,14.22,11111222 
TABS,ioos:station:wmo:42051:1,2002-12-09T11:00:00Z,29.6350,-93.6417,-2.0,14.22,11111222 
TABS,ioos:station:wmo:42051:1,2002-12-09T11:30:00Z,29.6350,-93.6417,-2.0,14.26,11111222 
TABS,ioos:station:wmo:42051:1,2002-12-10T18:30:00Z,29.6350,-93.6417,-2.0,14.5,11111222 
TABS,ioos:station:wmo:42051:1,2002-12-10T19:00:00Z,29.6350,-93.6417,-2.0,14.39,11111222 
TABS,ioos:station:wmo:42051:1,2002-12-10T19:30:00Z,29.6350,-93.6417,-2.0,14.28,11111222 
TABS,ioos:station:wmo:42051:1,2002-12-10T20:00:00Z,29.6350,-93.6417,-2.0,14.34,11111222 
TABS,ioos:station:wmo:42051:1,2002-12-10T20:30:00Z,29.6350,-93.6417,-2.0,14.41,11111222 
TABS,ioos:station:wmo:42051:1,2002-12-10T21:00:00Z,29.6350,-93.6417,-2.0,14.38,11111222 
TABS,ioos:station:wmo:42051:1,2002-12-10T21:30:00Z,29.6350,-93.6417,-2.0,14.29,11111222 
TABS,ioos:station:wmo:42051:1,2002-12-10T22:00:00Z,29.6350,-93.6417,-2.0,14.26,11111222 
TABS,ioos:station:wmo:42051:1,2002-12-10T22:30:00Z,29.6350,-93.6417,-2.0,14.24,11111222 
TABS,ioos:station:wmo:42051:1,2002-12-10T23:00:00Z,29.6350,-93.6417,-2.0,14.2,11111222 
TABS,ioos:station:wmo:42051:1,2002-12-10T23:30:00Z,29.6350,-93.6417,-2.0,14.13,11111222 
TABS,ioos:station:wmo:42051:1,2002-12-11T00:00:00Z,29.6350,-93.6417,-2.0,14.11,11111222 
TABS,ioos:station:wmo:42051:1,2002-12-11T00:30:00Z,29.6350,-93.6417,-2.0,14.09,11111222 
TABS,ioos:station:wmo:42051:1,2002-12-11T01:00:00Z,29.6350,-93.6417,-2.0,13.98,11111222 
TABS,ioos:station:wmo:42051:1,2002-12-11T01:30:00Z,29.6350,-93.6417,-2.0,13.94,11111222 
TABS,ioos:station:wmo:42051:1,2002-12-11T02:00:00Z,29.6350,-93.6417,-2.0,13.97,11111222 
TABS,ioos:station:wmo:42051:1,2002-12-11T02:30:00Z,29.6350,-93.6417,-2.0,13.89,11111222 